Time,TemperatureF,DewpointF,PressureIn,WindDirection,WindDirectionDegrees,WindSpeedMPH,WindSpeedGustMPH,Humidity,HourlyPrecipIn,Conditions,Clouds,dailyrainin,SoftwareType,DateUTC
2013-07-27 00:04:00,68.3,64.0,29.92,SW,234,0.0,3.0,87,0.01,,,0.01,weatherlink.com 1.10,2013-07-27 04:04:00,
2013-07-27 00:19:00,68.0,64.0,29.92,SSW,202,3.0,6.0,86,0.01,,,0.01,weatherlink.com 1.10,2013-07-27 04:19:00,
2013-07-27 00:33:00,68.4,64.0,29.91,South,189,2.0,7.0,85,0.01,,,0.01,weatherlink.com 1.10,2013-07-27 04:33:00,
2013-07-27 00:48:00,68.4,63.0,29.91,South,170,4.0,6.0,84,0.00,,,0.00,weatherlink.com 1.10,2013-07-27 04:48:00,
2013-07-27 01:03:00,68.3,63.0,29.91,South,189,3.0,7.0,84,0.00,,,0.00,weatherlink.com 1.10,2013-07-27 05:03:00,
2013-07-27 01:19:00,68.1,64.0,29.91,SSW,198,4.0,12.0,85,0.00,,,0.00,weatherlink.com 1.10,2013-07-27 05:19:00,
2013-07-27 01:33:00,67.7,63.0,29.91,SSW,206,4.0,9.0,86,0.00,,,0.00,weatherlink.com 1.10,2013-07-27 05:33:00,
2013-07-27 01:50:00,67.4,64.0,29.90,SSW,207,4.0,9.0,88,0.00,,,0.00,weatherlink.com 1.10,2013-07-27 05:50:00,
2013-07-27 02:05:00,67.2,64.0,29.89,SW,215,2.0,8.0,88,0.00,,,0.00,weatherlink.com 1.10,2013-07-27 06:05:00,
2013-07-27 02:20:00,67.0,64.0,29.89,South,180,5.0,8.0,89,0.00,,,0.00,weatherlink.com 1.10,2013-07-27 06:20:00,
2013-07-27 02:35:00,67.0,64.0,29.88,SSW,199,4.0,8.0,89,0.00,,,0.00,weatherlink.com 1.10,2013-07-27 06:35:00,
2013-07-27 02:51:00,67.0,64.0,29.88,SSW,194,3.0,8.0,90,0.00,,,0.00,weatherlink.com 1.10,2013-07-27 06:51:00,
2013-07-27 03:06:00,66.8,64.0,29.88,South,182,2.0,7.0,90,0.00,,,0.00,weatherlink.com 1.10,2013-07-27 07:06:00,
2013-07-27 03:21:00,66.7,64.0,29.87,South,180,3.0,10.0,90,0.00,,,0.00,weatherlink.com 1.10,2013-07-27 07:21:00,
2013-07-27 03:37:00,66.7,64.0,29.87,SSW,200,3.0,7.0,91,0.00,,,0.00,weatherlink.com 1.10,2013-07-27 07:37:00,
2013-07-27 03:52:00,66.6,64.0,29.87,South,189,3.0,6.0,91,0.00,,,0.00,weatherlink.com 1.10,2013-07-27 07:52:00,
2013-07-27 04:07:00,66.6,64.0,29.86,SW,216,5.0,7.0,92,0.00,,,0.00,weatherlink.com 1.10,2013-07-27 08:07:00,
2013-07-27 04:21:00,66.6,64.0,29.86,SSW,205,4.0,7.0,92,0.00,,,0.00,weatherlink.com 1.10,2013-07-27 08:21:00,
2013-07-27 04:38:00,66.6,65.0,29.86,SSW,193,2.0,5.0,93,0.00,,,0.00,weatherlink.com 1.10,2013-07-27 08:38:00,
2013-07-27 04:53:00,66.6,65.0,29.85,SW,227,1.0,9.0,93,0.00,,,0.00,weatherlink.com 1.10,2013-07-27 08:53:00,
2013-07-27 05:08:00,66.6,65.0,29.85,SSW,212,6.0,7.0,93,0.00,,,0.00,weatherlink.com 1.10,2013-07-27 09:08:00,
2013-07-27 05:24:00,66.6,65.0,29.85,SSW,207,4.0,9.0,94,0.00,,,0.00,weatherlink.com 1.10,2013-07-27 09:24:00,
2013-07-27 05:39:00,66.7,65.0,29.84,SW,229,1.0,7.0,94,0.00,,,0.00,weatherlink.com 1.10,2013-07-27 09:39:00,
2013-07-27 05:54:00,66.8,65.0,29.84,SW,229,2.0,7.0,94,0.00,,,0.00,weatherlink.com 1.10,2013-07-27 09:54:00,
2013-07-27 06:09:00,66.9,65.0,29.84,South,175,3.0,7.0,94,0.00,,,0.00,weatherlink.com 1.10,2013-07-27 10:09:00,
2013-07-27 06:24:00,67.0,65.0,29.85,SSW,207,3.0,5.0,94,0.00,,,0.00,weatherlink.com 1.10,2013-07-27 10:24:00,
2013-07-27 06:39:00,67.0,65.0,29.85,SSW,198,2.0,7.0,94,0.00,,,0.00,weatherlink.com 1.10,2013-07-27 10:39:00,
2013-07-27 06:54:00,67.0,65.0,29.85,SSW,211,4.0,9.0,94,0.00,,,0.00,weatherlink.com 1.10,2013-07-27 10:54:00,
2013-07-27 07:10:00,67.1,65.0,29.85,SSW,209,1.0,7.0,94,0.00,,,0.00,weatherlink.com 1.10,2013-07-27 11:10:00,
2013-07-27 07:25:00,67.1,65.0,29.85,WSW,253,4.0,7.0,94,0.00,,,0.00,weatherlink.com 1.10,2013-07-27 11:25:00,
2013-07-27 07:40:00,67.2,66.0,29.85,SSW,206,3.0,7.0,94,0.00,,,0.00,weatherlink.com 1.10,2013-07-27 11:40:00,
2013-07-27 07:56:00,67.3,66.0,29.85,SSW,205,5.0,7.0,94,0.00,,,0.00,weatherlink.com 1.10,2013-07-27 11:56:00,
2013-07-27 08:11:00,67.3,66.0,29.85,SSW,210,2.0,6.0,94,0.00,,,0.00,weatherlink.com 1.10,2013-07-27 12:11:00,
2013-07-27 08:26:00,67.3,66.0,29.84,SW,225,3.0,7.0,94,0.00,,,0.00,weatherlink.com 1.10,2013-07-27 12:26:00,
2013-07-27 08:42:00,67.4,66.0,29.84,SSW,204,2.0,6.0,95,0.00,,,0.00,weatherlink.com 1.10,2013-07-27 12:42:00,
2013-07-27 08:57:00,67.4,66.0,29.84,SW,227,3.0,6.0,95,0.00,,,0.00,weatherlink.com 1.10,2013-07-27 12:57:00,
2013-07-27 09:12:00,67.6,66.0,29.84,SSW,197,1.0,7.0,95,0.00,,,0.00,weatherlink.com 1.10,2013-07-27 13:12:00,
2013-07-27 09:29:00,67.9,66.0,29.84,SW,219,2.0,9.0,94,0.00,,,0.00,weatherlink.com 1.10,2013-07-27 13:29:00,
2013-07-27 09:44:00,68.2,66.0,29.84,West,259,4.0,6.0,93,0.00,,,0.00,weatherlink.com 1.10,2013-07-27 13:44:00,
2013-07-27 09:58:00,68.8,67.0,29.83,WSW,253,5.0,8.0,93,0.00,,,0.00,weatherlink.com 1.10,2013-07-27 13:58:00,
2013-07-27 10:14:00,69.7,67.0,29.83,SW,231,5.0,8.0,91,0.00,,,0.00,weatherlink.com 1.10,2013-07-27 14:14:00,
2013-07-27 10:29:00,69.9,67.0,29.83,West,263,5.0,11.0,89,0.00,,,0.00,weatherlink.com 1.10,2013-07-27 14:29:00,
2013-07-27 10:43:00,70.6,67.0,29.83,SW,223,4.0,12.0,87,0.00,,,0.00,weatherlink.com 1.10,2013-07-27 14:43:00,
2013-07-27 10:59:00,70.7,66.0,29.82,WSW,254,2.0,12.0,84,0.00,,,0.00,weatherlink.com 1.10,2013-07-27 14:59:00,
2013-07-27 11:14:00,71.1,65.0,29.82,SW,228,8.0,14.0,82,0.00,,,0.00,weatherlink.com 1.10,2013-07-27 15:14:00,
2013-07-27 11:31:00,72.4,66.0,29.82,West,269,3.0,13.0,80,0.00,,,0.00,weatherlink.com 1.10,2013-07-27 15:31:00,
2013-07-27 11:44:00,72.8,64.0,29.82,WNW,290,9.0,16.0,75,0.00,,,0.00,weatherlink.com 1.10,2013-07-27 15:44:00,
2013-07-27 11:59:00,73.5,64.0,29.82,West,268,13.0,14.0,72,0.00,,,0.00,weatherlink.com 1.10,2013-07-27 15:59:00,
2013-07-27 12:15:00,74.0,64.0,29.82,WSW,241,5.0,14.0,71,0.00,,,0.00,weatherlink.com 1.10,2013-07-27 16:15:00,
2013-07-27 12:30:00,73.3,63.0,29.82,West,264,3.0,15.0,70,0.00,,,0.00,weatherlink.com 1.10,2013-07-27 16:30:00,
2013-07-27 12:47:00,74.0,62.0,29.82,NW,314,9.0,16.0,66,0.00,,,0.00,weatherlink.com 1.10,2013-07-27 16:47:00,
2013-07-27 13:00:00,74.0,64.0,29.81,West,271,4.0,14.0,70,0.00,,,0.00,weatherlink.com 1.10,2013-07-27 17:00:00,
2013-07-27 13:16:00,74.5,62.0,29.81,WNW,295,5.0,16.0,65,0.00,,,0.00,weatherlink.com 1.10,2013-07-27 17:16:00,
2013-07-27 13:31:00,74.5,62.0,29.81,SW,224,7.0,19.0,66,0.00,,,0.00,weatherlink.com 1.10,2013-07-27 17:31:00,
2013-07-27 13:48:00,74.8,61.0,29.81,SW,215,5.0,15.0,63,0.00,,,0.00,weatherlink.com 1.10,2013-07-27 17:48:00,
2013-07-27 14:02:00,75.2,62.0,29.81,WSW,257,9.0,17.0,63,0.00,,,0.00,weatherlink.com 1.10,2013-07-27 18:02:00,
2013-07-27 14:16:00,74.9,61.0,29.81,WSW,242,8.0,17.0,63,0.00,,,0.00,weatherlink.com 1.10,2013-07-27 18:16:00,
2013-07-27 14:34:00,75.3,61.0,29.81,West,267,9.0,16.0,62,0.00,,,0.00,weatherlink.com 1.10,2013-07-27 18:34:00,
2013-07-27 14:49:00,75.4,62.0,29.81,SW,219,15.0,16.0,63,0.00,,,0.00,weatherlink.com 1.10,2013-07-27 18:49:00,
2013-07-27 15:04:00,74.9,62.0,29.80,West,260,17.0,20.0,65,0.00,,,0.00,weatherlink.com 1.10,2013-07-27 19:04:00,
2013-07-27 15:19:00,74.7,61.0,29.80,WNW,290,7.0,17.0,62,0.00,,,0.00,weatherlink.com 1.10,2013-07-27 19:19:00,
2013-07-27 15:34:00,75.5,61.0,29.80,WSW,245,8.0,16.0,60,0.00,,,0.00,weatherlink.com 1.10,2013-07-27 19:34:00,
2013-07-27 15:49:00,74.1,61.0,29.80,West,268,5.0,17.0,64,0.00,,,0.00,weatherlink.com 1.10,2013-07-27 19:49:00,
2013-07-27 16:04:00,74.9,60.0,29.80,West,271,12.0,19.0,61,0.00,,,0.00,weatherlink.com 1.10,2013-07-27 20:04:00,
2013-07-27 16:20:00,75.3,60.0,29.79,WNW,298,10.0,19.0,59,0.00,,,0.00,weatherlink.com 1.10,2013-07-27 20:20:00,
2013-07-27 16:34:00,75.0,61.0,29.80,SW,234,5.0,16.0,61,0.00,,,0.00,weatherlink.com 1.10,2013-07-27 20:34:00,
2013-07-27 16:49:00,74.8,60.0,29.80,WNW,282,7.0,18.0,61,0.00,,,0.00,weatherlink.com 1.10,2013-07-27 20:49:00,
2013-07-27 17:06:00,75.3,58.0,29.80,WNW,303,5.0,17.0,56,0.00,,,0.00,weatherlink.com 1.10,2013-07-27 21:06:00,
2013-07-27 17:21:00,75.0,59.0,29.80,WSW,240,11.0,17.0,57,0.00,,,0.00,weatherlink.com 1.10,2013-07-27 21:21:00,
2013-07-27 17:36:00,74.7,58.0,29.80,WNW,286,8.0,18.0,57,0.00,,,0.00,weatherlink.com 1.10,2013-07-27 21:36:00,
2013-07-27 17:51:00,73.8,57.0,29.80,West,272,6.0,21.0,57,0.00,,,0.00,weatherlink.com 1.10,2013-07-27 21:51:00,
2013-07-27 18:08:00,73.2,58.0,29.81,WNW,282,4.0,18.0,60,0.00,,,0.00,weatherlink.com 1.10,2013-07-27 22:08:00,
2013-07-27 18:22:00,73.1,59.0,29.81,WNW,294,8.0,18.0,61,0.00,,,0.00,weatherlink.com 1.10,2013-07-27 22:22:00,
2013-07-27 18:36:00,72.8,57.0,29.81,West,273,6.0,16.0,59,0.00,,,0.00,weatherlink.com 1.10,2013-07-27 22:36:00,
2013-07-27 18:54:00,71.2,59.0,29.82,WNW,288,11.0,17.0,66,0.00,,,0.00,weatherlink.com 1.10,2013-07-27 22:54:00,
2013-07-27 19:07:00,69.2,59.0,29.83,NNW,341,8.0,14.0,70,0.00,,,0.00,weatherlink.com 1.10,2013-07-27 23:07:00,
2013-07-27 19:24:00,68.9,58.0,29.83,NW,309,7.0,10.0,69,0.00,,,0.00,weatherlink.com 1.10,2013-07-27 23:24:00,
2013-07-27 19:39:00,68.8,59.0,29.84,NW,321,2.0,10.0,70,0.00,,,0.00,weatherlink.com 1.10,2013-07-27 23:39:00,
2013-07-27 19:53:00,68.8,58.0,29.85,WNW,284,7.0,9.0,69,0.00,,,0.00,weatherlink.com 1.10,2013-07-27 23:53:00,
2013-07-27 20:09:00,67.7,58.0,29.86,NNW,331,7.0,11.0,71,0.00,,,0.00,weatherlink.com 1.10,2013-07-28 00:09:00,
2013-07-27 20:24:00,66.7,57.0,29.85,NW,319,4.0,9.0,72,0.00,,,0.00,weatherlink.com 1.10,2013-07-28 00:24:00,
2013-07-27 20:39:00,65.8,57.0,29.85,NNW,327,2.0,8.0,73,0.00,,,0.00,weatherlink.com 1.10,2013-07-28 00:39:00,
2013-07-27 20:55:00,65.2,57.0,29.86,North,355,1.0,7.0,75,0.00,,,0.00,weatherlink.com 1.10,2013-07-28 00:55:00,
2013-07-27 21:09:00,64.3,57.0,29.86,NNW,337,7.0,7.0,76,0.00,,,0.00,weatherlink.com 1.10,2013-07-28 01:09:00,
2013-07-27 21:25:00,63.7,56.0,29.87,North,355,2.0,7.0,76,0.00,,,0.00,weatherlink.com 1.10,2013-07-28 01:25:00,
2013-07-27 21:41:00,63.3,56.0,29.88,NNW,331,0.0,8.0,76,0.00,,,0.00,weatherlink.com 1.10,2013-07-28 01:41:00,
2013-07-27 21:55:00,63.0,56.0,29.89,North,355,0.0,5.0,77,0.00,,,0.00,weatherlink.com 1.10,2013-07-28 01:55:00,
2013-07-27 22:11:00,62.3,55.0,29.89,NNW,342,3.0,3.0,78,0.00,,,0.00,weatherlink.com 1.10,2013-07-28 02:11:00,
2013-07-27 22:26:00,61.9,55.0,29.89,NW,320,2.0,4.0,79,0.00,,,0.00,weatherlink.com 1.10,2013-07-28 02:26:00,
2013-07-27 22:41:00,61.2,55.0,29.89,NW,323,0.0,3.0,80,0.00,,,0.00,weatherlink.com 1.10,2013-07-28 02:41:00,
2013-07-27 22:56:00,60.7,55.0,29.90,NNW,346,1.0,4.0,80,0.00,,,0.00,weatherlink.com 1.10,2013-07-28 02:56:00,
2013-07-27 23:12:00,60.4,54.0,29.90,NNW,342,0.0,3.0,80,0.00,,,0.00,weatherlink.com 1.10,2013-07-28 03:12:00,
2013-07-27 23:26:00,60.0,54.0,29.90,North,355,1.0,3.0,80,0.00,,,0.00,weatherlink.com 1.10,2013-07-28 03:26:00,
2013-07-27 23:57:00,59.8,53.0,29.90,North,350,3.0,5.0,79,0.00,,,0.00,weatherlink.com 1.10,2013-07-28 03:57:00,